This demonstration page uses our WeatherBlox Daily Observations layout. Learn more.

40.92945, -100.16068

Hourly Observations for January 6, 2018

Temp ( °F °C ) Dew Point ( °F °C ) Humidity (%) Winds ( mph kmh ) Pressure ( in mb ) Visibility ( mi km ) Precip ( " mm )
12:15 am 00:15 Cloudy 12 -11.2 8 -13.2 85 85 SE 7 11 30.56 1035 10 16.0934 0 0
12:35 am 00:35 Cloudy 12 -11 9 -13 85 85 SE 8 13 30.56 1035 10 16.0934 0 0
12:55 am 00:55 Cloudy 12 -11 9 -13 85 85 SE 7 11 30.56 1035 10 16.0934 0 0
1:15 am 01:15 Cloudy 12 -11 9 -13 85 85 SE 6 9 30.56 1035 10 16.0934 0 0
1:35 am 01:35 Cloudy 13 -10.8 9 -12.9 85 85 SE 8 13 30.56 1035 10 16.0934 0 0
1:55 am 01:55 Cloudy 13 -10.7 9 -13 83 83 SE 8 13 30.53 1034 10 16.0934 0 0
2:15 am 02:15 Cloudy 13 -10.7 9 -13 83 83 SE 6 9 30.53 1034 10 16.0934 0 0
2:35 am 02:35 Cloudy 13 -10.7 9 -13 83 83 SSE 6 9 30.53 1034 10 16.0934 0 0
2:55 am 02:55 Cloudy 13 -10.5 9 -12.6 85 85 SSE 7 11 30.53 1034 10 16.0934 0 0
3:15 am 03:15 Cloudy 14 -10.2 10 -12.5 83 83 SE 5 7 30.53 1034 10 16.0934 0 0
3:35 am 03:35 Cloudy 14 -10.1 10 -12.5 83 83 SE 6 9 30.53 1034 10 16.0934 0 0
3:55 am 03:55 Cloudy 14 -10.1 10 -12.5 83 83 SSE 7 11 30.53 1034 10 16.0934 0 0
4:15 am 04:15 Mostly Cloudy 13 -10.5 9 -12.7 84 84 SE 6 9 30.5 1033 10 16.0934 0 0
4:35 am 04:35 Partly Cloudy 12 -11 8 -13.1 85 85 ESE 7 11 30.5 1033 10 16.0934 0 0
4:55 am 04:55 Clear 12 -11.2 8 -13.2 85 85 SE 5 7 30.53 1034 7 11.26538 0 0
5:15 am 05:15 Clear 11 -11.5 8 -13.5 85 85 SE 6 9 30.53 1034 7 11.26538 0 0
5:35 am 05:35 Clear 11 -11.8 7 -13.8 85 85 ESE 8 13 30.5 1033 7 11.26538 0 0
5:55 am 05:55 Clear 11 -11.8 7 -13.8 85 85 SE 6 9 30.5 1033 7 11.26538 0 0
6:15 am 06:15 Clear 10 -12.2 6 -14.2 85 85 SE 6 9 30.5 1033 7 11.26538 0 0
6:35 am 06:35 Clear 10 -12.3 6 -14.2 86 86 SE 5 7 30.5 1033 7 11.26538 0 0
6:55 am 06:55 Clear with Light Snow 10 -12.5 6 -14.4 86 86 SSE 5 7 30.53 1034 5 8.0467 0 0
7:15 am 07:15 Clear 10 -12.5 6 -14.5 85 85 SE 7 11 30.5 1033 7 11.26538 0 0
7:35 am 07:35 Clear 9 -12.7 6 -14.7 85 85 SSE 7 11 30.5 1033 7 11.26538 0 0
7:55 am 07:55 Clear 8 -13.2 4 -15.3 84 84 SSE 7 11 30.5 1033 10 16.0934 0 0
8:15 am 08:15 Sunny 9 -12.8 5 -15 84 84 SSE 8 13 30.5 1033 7 11.26538 0 0
8:35 am 08:35 Sunny 10 -12.5 6 -14.5 85 85 SSE 9 15 30.5 1033 7 11.26538 0 0
8:55 am 08:55 Sunny 10 -12.1 6 -14.4 83 83 SSE 8 13 30.5 1033 10 16.0934 0 0
9:15 am 09:15 Sunny 11 -11.5 7 -14 82 82 SSE 8 13 30.5 1033 10 16.0934 0 0
9:35 am 09:35 Sunny 12 -10.9 8 -13.4 82 82 S 8 13 30.48 1032 10 16.0934 0 0
9:55 am 09:55 Sunny 14 -10 9 -12.8 80 80 S 10 17 30.48 1032 10 16.0934 0 0
10:15 am 10:15 Sunny 15 -9.5 10 -12.5 79 79 S 10 17 30.48 1032 10 16.0934 0 0
10:35 am 10:35 Sunny 16 -9 10 -12.1 78 78 S 12 19 30.48 1032 10 16.0934 0 0
10:55 am 10:55 Sunny 17 -8.5 11 -11.8 77 77 S 10 17 30.42 1030 10 16.0934 0 0
11:15 am 11:15 Sunny 18 -7.7 11 -11.6 74 74 S 14 22 30.42 1030 10 16.0934 0 0
11:35 am 11:35 Sunny 19 -7.2 12 -11 75 75 S 13 20 30.39 1029 10 16.0934 0 0
11:55 am 11:55 Sunny 20 -6.6 13 -10.7 73 73 S 14 22 30.39 1029 10 16.0934 0 0
12:15 pm 12:15 Sunny 21 -6.1 13 -10.4 72 72 S 13 20 30.33 1027 10 16.0934 0 0
12:35 pm 12:35 Sunny 22 -5.5 14 -10 71 71 S 12 19 30.33 1027 10 16.0934 0 0
12:55 pm 12:55 Sunny 23 -5.1 15 -9.6 71 71 S 13 20 30.27 1025 10 16.0934 0 0
1:15 pm 13:15 Sunny 24 -4.6 15 -9.3 70 70 S 10 17 30.27 1025 10 16.0934 0 0
1:35 pm 13:35 Sunny 25 -4.1 16 -8.9 70 70 S 12 19 30.24 1024 10 16.0934 0 0
1:55 pm 13:55 Sunny 26 -3.5 17 -8.6 68 68 S 13 20 30.21 1023 10 16.0934 0 0
2:15 pm 14:15 Sunny 26 -3.1 17 -8.2 68 68 S 16 26 30.18 1022 10 16.0934 0 0
2:35 pm 14:35 Sunny 27 -2.7 17 -8.1 67 67 S 13 20 30.18 1022 10 16.0934 0 0
2:55 pm 14:55 Sunny 28 -2.5 18 -7.7 68 68 SSW 12 19 30.18 1022 10 16.0934 0 0
3:15 pm 15:15 Sunny 28 -2.3 18 -7.9 66 66 S 14 22 30.18 1022 10 16.0934 0 0
3:35 pm 15:35 Sunny 28 -2.3 18 -7.8 66 66 S 12 19 30.18 1022 10 16.0934 0 0
3:55 pm 15:55 Sunny 28 -2.2 18 -7.6 67 67 SSW 9 15 30.18 1022 10 16.0934 0 0
4:15 pm 16:15 Sunny 28 -2.1 19 -7.5 67 67 S 9 15 30.18 1022 10 16.0934 0 0
4:35 pm 16:35 Sunny 28 -2.1 18 -7.6 66 66 SSW 8 13 30.18 1022 10 16.0934 0 0
4:55 pm 16:55 Sunny 28 -2.5 19 -7.5 69 69 S 8 13 30.18 1022 10 16.0934 0 0
5:15 pm 17:15 Sunny 27 -2.7 19 -7.5 70 70 SSE 6 9 30.18 1022 10 16.0934 0 0
5:35 pm 17:35 Clear 27 -3 19 -7.5 71 71 SE 5 7 30.18 1022 10 16.0934 0 0
5:55 pm 17:55 Clear 26 -3.1 19 -7.4 73 73 SSE 8 13 30.15 1021 10 16.0934 0 0
6:15 pm 18:15 Clear 26 -3.1 19 -7.3 73 73 S 9 15 30.15 1021 10 16.0934 0 0
6:35 pm 18:35 Clear 27 -2.7 18 -7.6 69 69 SSE 7 11 30.15 1021 10 16.0934 0 0
6:55 pm 18:55 Clear 27 -3 18 -7.7 70 70 SSE 9 15 30.12 1020 10 16.0934 0 0
7:15 pm 19:15 Clear 27 -3 18 -7.8 70 70 SSE 7 11 30.12 1020 10 16.0934 0 0
7:35 pm 19:35 Clear 26 -3.2 18 -7.8 71 71 S 6 9 30.12 1020 10 16.0934 0 0
7:55 pm 19:55 Clear 26 -3.4 18 -7.9 71 71 SE 5 7 30.12 1020 10 16.0934 0 0
8:15 pm 20:15 Clear 27 -3 18 -8 69 69 S 6 9 30.12 1020 10 16.0934 0 0
8:35 pm 20:35 Clear 27 -3 18 -8 69 69 S 8 13 30.12 1020 10 16.0934 0 0
8:55 pm 20:55 Clear 27 -2.8 18 -7.8 69 69 SSE 10 17 30.06 1018 10 16.0934 0 0
9:15 pm 21:15 Clear 28 -2.5 18 -7.6 68 68 S 10 17 30.06 1018 10 16.0934 0 0
9:35 pm 21:35 Clear 28 -2.5 18 -7.6 68 68 SSE 9 15 30.06 1018 10 16.0934 0 0
9:55 pm 21:55 Clear 28 -2.2 18 -7.6 67 67 S 10 17 30.06 1018 10 16.0934 0 0
10:15 pm 22:15 Clear 28 -2 19 -7.5 66 66 S 10 17 30.03 1017 10 16.0934 0 0
10:35 pm 22:35 Clear 28 -2.2 19 -7.5 67 67 S 10 17 30.03 1017 10 16.0934 0 0
10:55 pm 22:55 Clear 28 -2.1 19 -7.5 67 67 S 10 17 30.03 1017 10 16.0934 0 0
11:15 pm 23:15 Clear 28 -2.5 19 -7.4 69 69 S 8 13 30.03 1017 10 16.0934 0 0
11:35 pm 23:35 Clear 27 -2.8 19 -7.5 70 70 S 8 13 30.03 1017 10 16.0934 0 0
11:55 pm 23:55 Clear 26 -3.2 18 -7.7 71 71 S 5 7 30.06 1018 10 16.0934 0 0

Powered by AerisWeather